Location: Finkenbach
(49.5340°N, 8.9188°E)
Time: 20:24:54
(UTC+00:00)

Tsikada Rocket - Pass Details

Date: 17 June 2025
Orbit: 958 x 1007 km, 82.9° (Epoch: 16 July)

Event Time Altitude Azimuth Distance (km) Brightness Sun altitude
Exits shadow 22:49:22 25° 163° (SSE) 1,841 4.8 -16.6°
Maximum altitude 22:52:58 60° 93° (E) 1,113 4.2 -16.7°
Drops below altitude 10° 22:59:09 10° 15° (NNE) 2,754 7.4 -16.8°
Sets 23:01:43 0° 12° (NNE) 3,714 8.5 -16.9°
